Regional Weather Roundup
Issued by NWS

Home | Current Version | Previous Version | Graphics & Text | Print | Product List | Glossary On
Versions: 1 2 3 4 5 6 7 8 9 10 11 12 13 14 15 16 17 18 19 20 21 22 23 24 25 26 27 28 29 30 31 32 33 34 35 36 37 38 39 40 41 42 43 44 45 46 47 48 49 50
000
ASUS43 KOAX 290310
RWRNE

WEATHER ROUNDUP FOR NEBRASKA
NATIONAL WEATHER SERVICE OMAHA NE
1000 PM CDT TUE MAR 28 2017

NOTES: SATELLITE DATA IS BEING USED TO AUGMENT CLOUD COVER ABOVE
       12000 FEET.
       "FAIR" INDICATES FEW OR NO CLOUDS BELOW 12,000 FEET WITH NO
       SIGNIFICANT WEATHER AND/OR OBSTRUCTIONS TO VISIBILITY.

  * THESE STATIONS DO NOT REPORT WEATHER SUCH AS RAIN...SNOW OR FOG.

NEZ001>004-019>022-054>056-290400-
NEBRASKA PANHANDLE

CITY           SKY/WX    TMP DP  RH WIND       PRES   REMARKS
SCOTTSBLUFF    LGT RAIN  41  38  89 E9        30.11R
ALLIANCE       LGT RAIN  39  38  96 E7        30.10R WCI  34
CHADRON        LGT RAIN  42  38  85 E3        30.13R
KIMBALL        LGT RAIN  38  38 100 E9        30.08R WCI  32
SIDNEY         LGT RAIN  39  37  92 E6        30.08R WCI  35
$$

NEZ057>060-069>072-079>082-290400-
SOUTHWEST NEBRASKA

CITY           SKY/WX    TMP DP  RH WIND       PRES   REMARKS
NORTH PLATTE   LGT RAIN  44  41  89 NE7       30.07R FOG
IMPERIAL       LGT RAIN  43  41  93 E12       30.05R FOG
LEXINGTON      RAIN      43  41  91 E9        30.06R
MCCOOK         CLOUDY    44  43  96 NE17      30.02R FOG
OGALLALA       LGT RAIN  43  41  93 E9        30.07R
$$

NEZ005>010-023>029-035>040-094-290400-
NORTH CENTRAL NEBRASKA

CITY           SKY/WX    TMP DP  RH WIND       PRES   REMARKS
VALENTINE      CLOUDY    42  39  89 NE9       30.13S
AINSWORTH      DRIZZLE   43  43  99 NE12      30.12S
BROKEN BOW     CLOUDY    45  40  82 E5        30.07S
O`NEILL        CLOUDY    48  42  79 N8        30.10F
ORD            CLOUDY    46  40  79 E3        30.07F
THEDFORD       DRIZZLE   44  43  97 NE7       30.09S
$$

NEZ041-046>049-061>064-073>077-083>087-290400-
SOUTH CENTRAL NEBRASKA

CITY           SKY/WX    TMP DP  RH WIND       PRES   REMARKS
GRAND ISLAND   LGT RAIN  43  43 100 NE9       30.08R FOG
AURORA         RAIN      44  43  97 NE8       30.08R
HASTINGS       LGT RAIN  43  42  97 NE9       30.07S FOG
HEBRON         LGT RAIN  46  43  90 NE8       30.05S
HOLDREGE       LGT RAIN  42  41  95 NE13      30.04R
KEARNEY *      CLOUDY    43  39  87 NE13      30.06F
YORK           LGT RAIN  45  43  93 NE8       30.09R
$$

NEZ011>018-030>034-042>045-290400-
NORTHEAST NEBRASKA

CITY           SKY/WX    TMP DP  RH WIND       PRES   REMARKS
NORFOLK        MOCLDY    47  41  80 E3        30.09S
ALBION         CLOUDY    46  41  84 CALM      30.09S
BLAIR          CLOUDY    48  43  81 NE9       30.08F
FREMONT        CLOUDY    48  42  80 NE7       30.09F
TEKAMAH        CLOUDY    49  42  77 E8        30.11S
WAYNE          CLOUDY    48  44  84 E5        30.12S
$$

NEZ050>053-065>068-078-088>093-290400-
SOUTHEAST NEBRASKA

CITY           SKY/WX    TMP DP  RH WIND       PRES   REMARKS
LINCOLN        LGT RAIN  48  42  80 NE10      30.07F
OMAHA EPPLEY   CLOUDY    50  41  71 NE15      30.08F
BEATRICE       LGT RAIN  48  43  83 NE7       30.06R
FALLS CITY     CLOUDY    52  47  83 E10       30.03R
NEBRASKA CITY  CLOUDY    49  42  76 NE18      30.02F
PLATTSMOUTH    CLOUDY    48  41  74 NE8       30.06F
$$

NEZ044-045-051>053-067-290400-
OMAHA AREA

CITY           SKY/WX    TMP DP  RH WIND       PRES   REMARKS
OMAHA EPPLEY   CLOUDY    50  41  71 NE15      30.08F
BLAIR          CLOUDY    48  43  81 NE9       30.08F
FREMONT        CLOUDY    48  42  80 NE7       30.09F
MILLARD        CLOUDY    51  44  76 NE5       30.08F
OFFUTT AFB     CLOUDY    49  42  79 NE8       30.07F
PLATTSMOUTH    CLOUDY    48  41  74 NE8       30.06F
WAHOO          CLOUDY    47  43  85 NE9       30.07F
$$




USA.gov is the U.S. government's official web portal to all federal, state and local government web resources and services.